| time (UTC) | temp F | wind direction | speed MPH | gust MPH | rain 1hr in | rain 24hr in | rain mn in | humidity % | barometer mb |
| 20260904194506 | 75 | 131 | 0.0 | 3.0 | 0.00 | 0.00 | 0.00 | 70 | 1010.7 |
| 20260904193006 | 75 | 123 | 1.0 | 4.0 | 0.00 | 0.00 | 0.00 | 68 | 1010.8 |
| 20260904191506 | 76 | 113 | 0.0 | 5.0 | 0.00 | 0.00 | 0.00 | 67 | 1010.9 |
| 20260904190008 | 75 | 12 | 0.0 | 3.0 | 0.00 | 0.00 | 0.00 | 72 | 1011.1 |
| 20260904184504 | 76 | 240 | 1.0 | 3.0 | 0.00 | 0.00 | 0.00 | 70 | 1011.0 |
| 20260904183002 | 76 | 160 | 0.0 | 3.0 | 0.00 | 0.00 | 0.00 | 69 | 1011.0 |
| 20260904181502 | 76 | 191 | 0.0 | 3.0 | 0.00 | 0.00 | 0.00 | 71 | 1011.0 |
| 20260904180005 | 77 | 345 | 1.0 | 4.0 | 0.00 | 0.00 | 0.00 | 71 | 1011.1 |
| 20260904174605 | 78 | 224 | 1.0 | 3.0 | 0.00 | 0.00 | 0.00 | 71 | 1010.9 |
| 20260904173106 | 77 | 340 | 0.0 | 3.0 | 0.00 | 0.00 | 0.00 | 71 | 1011.2 |
| 20260904171556 | 76 | 100 | 0.0 | 1.0 | 0.00 | 0.00 | 0.00 | 74 | 1011.5 |
| 20260904170054 | 75 | 82 | 0.0 | 2.0 | 0.00 | 0.00 | 0.00 | 73 | 1011.5 |
| 20260904164555 | 76 | 62 | 0.0 | 2.0 | 0.00 | 0.00 | 0.00 | 71 | 1011.7 |
| 20260904163052 | 76 | 77 | 0.0 | 5.0 | 0.00 | 0.00 | 0.00 | 73 | 1011.7 |
| 20260904161551 | 77 | 343 | 1.0 | 5.0 | 0.00 | 0.00 | 0.00 | 75 | 1011.8 |
| 20260904160051 | 77 | 266 | 0.0 | 2.0 | 0.00 | 0.00 | 0.00 | 74 | 1012.0 |
| 20260904154547 | 76 | 244 | 1.0 | 5.0 | 0.00 | 0.00 | 0.00 | 73 | 1012.2 |
| 20260904153047 | 77 | 247 | 0.0 | 2.0 | 0.00 | 0.00 | 0.00 | 75 | 1012.3 |
| 20260904151546 | 76 | 213 | 0.0 | 3.0 | 0.00 | 0.00 | 0.00 | 74 | 1012.5 |
| 20260904150044 | 75 | 70 | 0.0 | 2.0 | 0.00 | 0.00 | 0.00 | 79 | 1012.6 |
| 20260904144539 | 74 | 80 | 0.0 | 2.0 | 0.00 | 0.00 | 0.00 | 81 | 1012.6 |
| 20260904143036 | 73 | 359 | 1.0 | 3.0 | 0.00 | 0.00 | 0.00 | 81 | 1012.8 |
| 20260904141547 | 71 | 247 | 0.0 | 3.0 | 0.00 | 0.00 | 0.00 | 86 | 1012.8 |
| 20260904140030 | 70 | 56 | 0.0 | 2.0 | 0.00 | 0.00 | 0.00 | 86 | 1012.9 |
| 20260904134528 | 69 | 277 | 0.0 | 1.0 | 0.00 | 0.00 | 0.00 | 89 | 1012.9 |
| 20260904133025 | 68 | 207 | 0.0 | 2.0 | 0.00 | 0.00 | 0.00 | 92 | 1013.0 |
| 20260904131519 | 66 | 116 | 0.0 | 1.0 | 0.00 | 0.00 | 0.00 | 97 | 1012.9 |
| 20260904130015 | 65 | 105 | 0.0 | 1.0 | 0.00 | 0.00 | 0.00 | 98 | 1013.0 |
| 20260904124512 | 63 | 96 | 0.0 | 2.0 | 0.00 | 0.01 | 0.00 | 98 | 1013.1 |
| 20260904123010 | 63 | 120 | 0.0 | 1.0 | 0.00 | 0.01 | 0.00 | 98 | 1013.1 |
| 20260904121509 | 62 | 103 | 0.0 | 1.0 | 0.00 | 0.01 | 0.00 | 98 | 1012.9 |
| 20260904120012 | 62 | 143 | 0.0 | 0.0 | 0.00 | 0.01 | 0.00 | 98 | 1012.9 |
| 20260904114506 | 62 | 181 | 0.0 | 0.0 | 0.00 | 0.02 | 0.00 | 98 | 1012.9 |
| 20260904113016 | 62 | 154 | 0.0 | 1.0 | 0.00 | 0.02 | 0.00 | 98 | 1012.8 |
| 20260904111516 | 62 | 105 | 0.0 | 1.0 | 0.00 | 0.02 | 0.00 | 99 | 1012.8 |
| 20260904110005 | 62 | 162 | 0.0 | 0.0 | 0.00 | 0.02 | 0.00 | 99 | 1012.5 |
| 20260904104504 | 62 | 162 | 0.0 | 0.0 | 0.00 | 0.02 | 0.00 | 99 | 1012.6 |
| 20260904103005 | 62 | 162 | 0.0 | 0.0 | 0.00 | 0.02 | 0.00 | 99 | 1012.5 |
| 20260904101503 | 62 | 162 | 0.0 | 0.0 | 0.00 | 0.02 | 0.00 | 98 | 1012.4 |
| 20260904100004 | 62 | 162 | 0.0 | 0.0 | 0.00 | 0.02 | 0.00 | 99 | 1012.5 |
| 20260904094503 | 62 | 162 | 0.0 | 0.0 | 0.00 | 0.17 | 0.00 | 99 | 1012.5 |
| 20260904093000 | 62 | 83 | 0.0 | 0.0 | 0.00 | 0.17 | 0.00 | 98 | 1012.4 |
| 20260904091502 | 62 | 83 | 0.0 | 1.0 | 0.00 | 0.17 | 0.00 | 98 | 1012.3 |
| 20260904090100 | 62 | 83 | 0.0 | 1.0 | 0.00 | 0.17 | 0.00 | 98 | 1012.3 |
| 20260904084600 | 62 | 83 | 0.0 | 1.0 | 0.00 | 0.18 | 0.00 | 98 | 1012.4 |
| 20260904083058 | 62 | 86 | 0.0 | 2.0 | 0.00 | 0.18 | 0.00 | 98 | 1012.3 |
| 20260904081558 | 62 | 91 | 0.0 | 1.0 | 0.00 | 0.18 | 0.00 | 98 | 1012.3 |
| 20260904080057 | 62 | 236 | 0.0 | 0.0 | 0.00 | 0.18 | 0.00 | 98 | 1012.5 |
| 20260904074556 | 61 | 236 | 0.0 | 1.0 | 0.00 | 0.22 | 0.00 | 98 | 1012.7 |
| 20260904073055 | 61 | 236 | 0.0 | 0.0 | 0.00 | 0.22 | 0.00 | 98 | 1012.7 |
| 20260904071557 | 61 | 236 | 0.0 | 1.0 | 0.00 | 0.22 | 0.00 | 98 | 1012.6 |
| 20260904070052 | 61 | 237 | 0.0 | 1.0 | 0.00 | 0.22 | 0.00 | 98 | 1012.8 |
| 20260904064604 | 61 | 163 | 0.0 | 0.0 | 0.00 | 0.24 | 0.00 | 98 | 1013.0 |
| 20260904063049 | 61 | 163 | 0.0 | 0.0 | 0.00 | 0.24 | 0.00 | 98 | 1013.1 |
| 20260904061550 | 61 | 163 | 0.0 | 0.0 | 0.00 | 0.24 | 0.00 | 98 | 1013.4 |
| 20260904060044 | 60 | 163 | 0.0 | 0.0 | 0.00 | 0.24 | 0.00 | 98 | 1013.7 |
| 20260904054544 | 60 | 163 | 0.0 | 0.0 | 0.00 | 0.24 | 0.00 | 98 | 1014.0 |
| 20260904053043 | 60 | 163 | 0.0 | 0.0 | 0.00 | 0.24 | 0.00 | 98 | 1014.0 |
| 20260904051541 | 60 | 163 | 0.0 | 0.0 | 0.00 | 0.24 | 0.00 | 98 | 1014.2 |
| 20260904050046 | 61 | 163 | 0.0 | 0.0 | 0.00 | 0.24 | 0.00 | 98 | 1014.2 |
| 20260904044549 | 61 | 163 | 0.0 | 0.0 | 0.00 | 0.24 | 0.00 | 98 | 1014.4 |
| 20260904043041 | 61 | 163 | 0.0 | 0.0 | 0.00 | 0.24 | 0.00 | 98 | 1014.4 |
| 20260904041539 | 61 | 163 | 0.0 | 0.0 | 0.00 | 0.24 | 0.00 | 98 | 1014.5 |
| 20260904040034 | 61 | 163 | 0.0 | 0.0 | 0.00 | 0.24 | 0.00 | 98 | 1014.5 |
| 20260904034532 | 62 | 163 | 0.0 | 0.0 | 0.00 | 0.24 | 0.24 | 98 | 1014.5 |
| 20260904033035 | 62 | 163 | 0.0 | 0.0 | 0.00 | 0.24 | 0.24 | 98 | 1014.8 |
| 20260904031536 | 62 | 163 | 0.0 | 0.0 | 0.00 | 0.24 | 0.24 | 98 | 1015.0 |
| 20260904030031 | 62 | 163 | 0.0 | 2.0 | 0.00 | 0.24 | 0.24 | 98 | 1015.0 |
| 20260904024530 | 62 | 349 | 0.0 | 2.0 | 0.00 | 0.24 | 0.24 | 98 | 1014.4 |
| 20260904023029 | 62 | 165 | 0.0 | 0.0 | 0.00 | 0.24 | 0.24 | 98 | 1014.7 |
| 20260904021527 | 62 | 199 | 0.0 | 0.0 | 0.00 | 0.24 | 0.24 | 97 | 1015.1 |
| 20260904020039 | 62 | 199 | 0.0 | 0.0 | 0.00 | 0.24 | 0.24 | 97 | 1015.2 |
| 20260904014526 | 62 | 199 | 0.0 | 0.0 | 0.00 | 0.24 | 0.24 | 97 | 1015.5 |
| 20260904013026 | 62 | 199 | 0.0 | 0.0 | 0.00 | 0.24 | 0.24 | 97 | 1015.2 |
| 20260904011527 | 62 | 199 | 0.0 | 0.0 | 0.00 | 0.24 | 0.24 | 97 | 1015.4 |
| 20260904010025 | 62 | 199 | 0.0 | 0.0 | 0.00 | 0.24 | 0.24 | 97 | 1015.1 |
| 20260904004524 | 63 | 199 | 0.0 | 0.0 | 0.00 | 0.24 | 0.24 | 97 | 1015.1 |
| 20260904003027 | 63 | 110 | 0.0 | 0.0 | 0.00 | 0.24 | 0.24 | 97 | 1015.2 |
| 20260904001521 | 63 | 110 | 0.0 | 0.0 | 0.00 | 0.24 | 0.24 | 96 | 1015.5 |
| 20260904000022 | 63 | 110 | 0.0 | 0.0 | 0.00 | 0.24 | 0.24 | 96 | 1015.3 |
| 20260903234521 | 64 | 110 | 0.0 | 0.0 | 0.00 | 0.24 | 0.24 | 96 | 1015.3 |
| 20260903233020 | 64 | 110 | 0.0 | 0.0 | 0.00 | 0.24 | 0.24 | 96 | 1015.3 |
| 20260903231520 | 64 | 110 | 0.0 | 0.0 | 0.00 | 0.24 | 0.24 | 95 | 1015.2 |
| 20260903230024 | 64 | 110 | 0.0 | 0.0 | 0.00 | 0.24 | 0.24 | 95 | 1015.4 |
| 20260903224518 | 64 | 110 | 0.0 | 0.0 | 0.00 | 0.24 | 0.24 | 95 | 1015.4 |
| 20260903223023 | 65 | 110 | 0.0 | 0.0 | 0.00 | 0.24 | 0.24 | 94 | 1015.4 |
| 20260903221521 | 65 | 110 | 0.0 | 0.0 | 0.00 | 0.24 | 0.24 | 94 | 1015.5 |
| 20260903220025 | 65 | 110 | 0.0 | 0.0 | 0.00 | 0.24 | 0.24 | 94 | 1015.5 |
| 20260903214516 | 65 | 110 | 0.0 | 0.0 | 0.00 | 0.24 | 0.24 | 94 | 1015.3 |
| 20260903213015 | 65 | 110 | 0.0 | 0.0 | 0.00 | 0.24 | 0.24 | 93 | 1015.4 |
| 20260903211514 | 65 | 110 | 0.0 | 0.0 | 0.00 | 0.24 | 0.24 | 92 | 1015.4 |
| 20260903210013 | 65 | 110 | 0.0 | 1.0 | 0.00 | 0.24 | 0.24 | 91 | 1015.4 |
| 20260903204512 | 66 | 110 | 0.0 | 1.0 | 0.00 | 0.24 | 0.24 | 91 | 1015.6 |
| 20260903203021 | 66 | 110 | 0.0 | 1.0 | 0.00 | 0.24 | 0.24 | 89 | 1015.5 |
| 20260903201510 | 66 | 110 | 0.0 | 1.0 | 0.00 | 0.24 | 0.24 | 89 | 1015.7 |
| 20260903200023 | 66 | 142 | 0.0 | 1.0 | 0.00 | 0.24 | 0.24 | 90 | 1015.8 |